RYR3XJ EGCC-EBCI

Flight info

Callsign RYR3XJ
Flight time 1h 3m
Altitude 23000
Route LISTO L612 HON L15 BIG Q70 KOK
Aircraft B738/M-SDE3FGILRWY/SB1

Departure

Time 2026-04-30 18:04
Airport Manchester Airport (EGCC)

Arrival

Time 2026-04-30 19:07
Airport Brussels South Charleroi Airport (EBCI)
Time Latitude Longitude Altitude Speed Heading
2026-04-30 17:39 53.36036 -2.26885 254 ft 0 kts 313°
2026-04-30 17:53 53.36035 -2.26883 254 ft 2 kts 313°
2026-04-30 17:54 53.36012 -2.26781 254 ft 3 kts 236°
2026-04-30 17:55 53.36050 -2.26700 254 ft 0 kts 231°
2026-04-30 17:57 53.36049 -2.26702 254 ft 1 kts 231°
2026-04-30 17:58 53.35950 -2.26841 254 ft 9 kts 168°
2026-04-30 17:59 53.35767 -2.27154 254 ft 12 kts 230°
2026-04-30 18:00 53.35465 -2.27783 239 ft 16 kts 246°
2026-04-30 18:00 53.35285 -2.28197 231 ft 16 kts 225°
2026-04-30 18:01 53.35141 -2.28488 226 ft 19 kts 231°
2026-04-30 18:02 53.34891 -2.28958 221 ft 19 kts 226°
2026-04-30 18:02 53.34664 -2.28979 217 ft 3 kts 134°
2026-04-30 18:03 53.35019 -2.28228 231 ft 102 kts 51°
2026-04-30 18:04 53.37002 -2.24153 1420 ft 168 kts 57°
2026-04-30 18:05 53.35415 -2.17500 2977 ft 208 kts 153°
2026-04-30 18:06 53.29346 -2.17493 5773 ft 247 kts 184°
2026-04-30 18:07 53.22252 -2.18653 9335 ft 262 kts 184°
2026-04-30 18:08 53.16466 -2.19559 10941 ft 308 kts 184°
2026-04-30 18:09 53.08064 -2.15701 14058 ft 324 kts 157°
2026-04-30 18:10 52.99572 -2.09741 16870 ft 340 kts 158°
2026-04-30 18:11 52.90667 -2.03602 19559 ft 352 kts 158°
2026-04-30 18:11 52.83784 -1.98888 21266 ft 364 kts 158°
2026-04-30 18:12 52.76727 -1.94072 23184 ft 369 kts 158°
2026-04-30 18:13 52.71954 -1.90824 24248 ft 373 kts 158°
2026-04-30 18:13 52.65509 -1.86451 25487 ft 380 kts 158°
2026-04-30 18:14 52.59781 -1.82576 26514 ft 386 kts 158°
2026-04-30 18:15 52.52255 -1.77501 27769 ft 394 kts 158°
2026-04-30 18:15 52.44638 -1.72382 29355 ft 392 kts 158°
2026-04-30 18:16 52.39616 -1.69018 30412 ft 390 kts 158°
2026-04-30 18:16 52.34900 -1.64677 31236 ft 391 kts 144°
2026-04-30 18:17 52.32871 -1.61722 31653 ft 392 kts 136°
2026-04-30 18:17 52.30990 -1.58499 32096 ft 392 kts 136°
2026-04-30 18:17 52.27245 -1.52016 32866 ft 393 kts 136°
2026-04-30 18:18 52.25367 -1.48782 33221 ft 393 kts 136°
2026-04-30 18:18 52.21555 -1.42271 33235 ft 395 kts 136°
2026-04-30 18:19 52.17792 -1.35878 33228 ft 388 kts 136°
2026-04-30 18:19 52.14036 -1.29523 33248 ft 390 kts 136°
2026-04-30 18:20 52.10259 -1.23149 33239 ft 392 kts 136°
2026-04-30 18:20 52.06465 -1.16755 33228 ft 394 kts 136°
2026-04-30 18:21 52.02653 -1.10360 33183 ft 394 kts 136°
2026-04-30 18:21 51.98786 -1.04054 33164 ft 394 kts 136°
2026-04-30 18:22 51.94997 -0.97742 33171 ft 392 kts 136°
2026-04-30 18:22 51.89337 -0.88253 33181 ft 389 kts 136°
2026-04-30 18:23 51.85577 -0.81989 33194 ft 387 kts 136°
2026-04-30 18:23 51.81819 -0.75748 33196 ft 387 kts 136°
2026-04-30 18:24 51.76175 -0.66427 33203 ft 387 kts 136°
2026-04-30 18:25 51.72399 -0.60225 33232 ft 388 kts 136°
2026-04-30 18:25 51.66718 -0.50914 33187 ft 389 kts 136°
2026-04-30 18:26 51.61023 -0.41614 33184 ft 389 kts 136°
2026-04-30 18:27 51.56100 -0.33600 33184 ft 390 kts 136°
2026-04-30 18:28 51.50375 -0.24315 33185 ft 390 kts 136°
2026-04-30 18:28 51.44640 -0.15047 33184 ft 390 kts 136°
2026-04-30 18:29 51.37635 -0.03772 33178 ft 390 kts 136°
2026-04-30 18:30 51.34313 0.02503 33209 ft 392 kts 120°
2026-04-30 18:30 51.32658 0.10829 33165 ft 400 kts 98°
2026-04-30 18:31 51.32062 0.24989 33165 ft 401 kts 97°
2026-04-30 18:32 51.31525 0.36890 33168 ft 401 kts 98°
2026-04-30 18:33 51.30873 0.50230 33155 ft 401 kts 98°
2026-04-30 18:33 51.30235 0.63502 33159 ft 401 kts 97°
2026-04-30 18:34 51.29771 0.76816 33176 ft 400 kts 96°
2026-04-30 18:35 51.29451 0.85674 33184 ft 399 kts 97°
2026-04-30 18:35 51.29118 0.94514 33188 ft 399 kts 97°
2026-04-30 18:36 51.28604 1.07745 33190 ft 398 kts 96°
2026-04-30 18:37 51.28068 1.20953 33193 ft 397 kts 97°
2026-04-30 18:37 51.27704 1.29741 33195 ft 396 kts 97°
2026-04-30 18:38 51.27337 1.38516 33179 ft 391 kts 97°
2026-04-30 18:38 51.27158 1.42773 33150 ft 378 kts 97°
2026-04-30 18:38 51.26981 1.46908 32928 ft 368 kts 97°
2026-04-30 18:38 51.26805 1.50981 32131 ft 369 kts 97°
2026-04-30 18:39 51.26626 1.55085 31339 ft 371 kts 97°
2026-04-30 18:39 51.26448 1.59186 30740 ft 368 kts 97°
2026-04-30 18:39 51.26271 1.63234 30211 ft 364 kts 97°
2026-04-30 18:39 51.26094 1.67248 29449 ft 363 kts 97°
2026-04-30 18:40 51.25914 1.71273 28590 ft 364 kts 97°
2026-04-30 18:40 51.25733 1.75306 27773 ft 365 kts 97°
2026-04-30 18:40 51.25551 1.79350 26976 ft 365 kts 97°
2026-04-30 18:40 51.25368 1.83389 26199 ft 365 kts 96°
2026-04-30 18:41 51.25183 1.87424 25446 ft 365 kts 96°
2026-04-30 18:41 51.24999 1.91454 24705 ft 364 kts 96°
2026-04-30 18:41 51.24812 1.95480 23985 ft 363 kts 96°
2026-04-30 18:41 51.24626 1.99455 23578 ft 354 kts 96°
2026-04-30 18:42 51.24449 2.03314 23433 ft 344 kts 96°
2026-04-30 18:42 51.23747 2.10820 23212 ft 340 kts 111°
2026-04-30 18:42 51.22786 2.14251 23201 ft 338 kts 120°
2026-04-30 18:45 51.10637 2.45210 21235 ft 319 kts 122°
2026-04-30 18:45 51.09463 2.48195 20905 ft 318 kts 122°
2026-04-30 18:45 51.08294 2.51163 20563 ft 316 kts 122°
2026-04-30 18:46 51.07128 2.54122 20223 ft 315 kts 123°
2026-04-30 18:46 51.05997 2.56989 19903 ft 314 kts 123°
2026-04-30 18:46 51.05038 2.59418 19633 ft 313 kts 123°
2026-04-30 18:46 51.03884 2.62338 19309 ft 311 kts 123°
2026-04-30 18:47 51.02877 2.64883 19021 ft 311 kts 123°
2026-04-30 18:47 51.01741 2.67750 18714 ft 309 kts 123°
2026-04-30 18:47 51.00597 2.70637 18395 ft 308 kts 123°
2026-04-30 18:47 50.99458 2.73506 18055 ft 306 kts 123°
2026-04-30 18:48 50.98323 2.76360 17723 ft 305 kts 123°
2026-04-30 18:48 50.97198 2.79190 17404 ft 303 kts 123°
2026-04-30 18:48 50.96078 2.82000 17146 ft 300 kts 123°
2026-04-30 18:48 50.94969 2.84783 16887 ft 298 kts 123°
2026-04-30 18:49 50.93876 2.87520 16636 ft 297 kts 123°
2026-04-30 18:49 50.92755 2.90325 16384 ft 297 kts 123°
2026-04-30 18:49 50.91650 2.93087 16132 ft 296 kts 123°
2026-04-30 18:49 50.90547 2.95843 15889 ft 296 kts 123°
2026-04-30 18:50 50.89460 2.98555 15645 ft 295 kts 123°
2026-04-30 18:50 50.88360 3.01296 15401 ft 295 kts 123°
2026-04-30 18:50 50.87262 3.04030 15159 ft 294 kts 123°
2026-04-30 18:50 50.86166 3.06756 14919 ft 293 kts 123°
2026-04-30 18:51 50.85071 3.09477 14684 ft 292 kts 123°
2026-04-30 18:51 50.83983 3.12176 14447 ft 291 kts 123°
2026-04-30 18:51 50.82893 3.14879 14217 ft 290 kts 122°
2026-04-30 18:51 50.81809 3.17564 13979 ft 289 kts 122°
2026-04-30 18:52 50.80728 3.20239 13714 ft 288 kts 122°
2026-04-30 18:52 50.79652 3.22899 13452 ft 286 kts 123°
2026-04-30 18:52 50.78580 3.25544 13193 ft 285 kts 123°
2026-04-30 18:52 50.77516 3.28170 12933 ft 283 kts 123°
2026-04-30 18:53 50.76456 3.30781 12677 ft 282 kts 123°
2026-04-30 18:53 50.75398 3.33386 12425 ft 281 kts 123°
2026-04-30 18:53 50.74341 3.35987 12083 ft 283 kts 123°
2026-04-30 18:53 50.73272 3.38613 11744 ft 285 kts 123°
2026-04-30 18:54 50.72202 3.41237 11402 ft 284 kts 123°
2026-04-30 18:54 50.71133 3.43860 11064 ft 284 kts 123°
2026-04-30 18:54 50.70064 3.46476 10728 ft 283 kts 123°
2026-04-30 18:54 50.68998 3.49086 10392 ft 283 kts 123°
2026-04-30 18:55 50.67936 3.51683 10025 ft 279 kts 123°
2026-04-30 18:55 50.65844 3.56788 9310 ft 277 kts 123°
2026-04-30 18:55 50.64799 3.59336 8956 ft 277 kts 123°
2026-04-30 18:56 50.62712 3.64416 8255 ft 276 kts 123°
2026-04-30 18:56 50.61670 3.66947 7913 ft 275 kts 123°
2026-04-30 18:56 50.60630 3.69473 7565 ft 275 kts 123°
2026-04-30 18:57 50.58554 3.74504 6904 ft 273 kts 123°
2026-04-30 18:57 50.57535 3.76973 6586 ft 264 kts 123°
2026-04-30 18:57 50.56551 3.79353 6312 ft 254 kts 123°
2026-04-30 18:58 50.54694 3.83841 6188 ft 240 kts 123°
2026-04-30 18:58 50.53775 3.86057 5930 ft 242 kts 124°
2026-04-30 18:58 50.52865 3.88252 5702 ft 238 kts 124°
2026-04-30 18:59 50.51072 3.92567 5266 ft 233 kts 124°
2026-04-30 19:00 50.48439 3.98893 4594 ft 229 kts 124°
2026-04-30 19:00 50.47571 4.00975 4364 ft 227 kts 124°
2026-04-30 19:00 50.45893 4.04996 3909 ft 212 kts 123°
2026-04-30 19:01 50.44325 4.08751 3513 ft 200 kts 124°
2026-04-30 19:01 50.43575 4.10546 3474 ft 195 kts 124°
2026-04-30 19:02 50.42148 4.13953 3405 ft 182 kts 124°
2026-04-30 19:02 50.40746 4.17292 3305 ft 185 kts 124°
2026-04-30 19:03 50.39443 4.20735 3122 ft 189 kts 103°
2026-04-30 19:03 50.40117 4.24682 3068 ft 185 kts 79°
2026-04-30 19:04 50.41041 4.28204 2881 ft 167 kts 72°
2026-04-30 19:04 50.41957 4.31368 2486 ft 152 kts 72°
2026-04-30 19:05 50.42773 4.34188 2106 ft 137 kts 73°
2026-04-30 19:05 50.43546 4.36882 1758 ft 138 kts 72°
2026-04-30 19:06 50.44337 4.39616 1379 ft 138 kts 72°
2026-04-30 19:06 50.44733 4.40985 1110 ft 138 kts 69°
2026-04-30 19:06 50.45550 4.43776 696 ft 144 kts 69°
2026-04-30 19:07 50.46241 4.46164 589 ft 69 kts 65°
2026-04-30 19:07 50.46377 4.46636 589 ft 28 kts 66°
2026-04-30 19:08 50.46503 4.46893 593 ft 12 kts 351°
2026-04-30 19:08 50.46565 4.46855 593 ft 1 kts 335°
2026-04-30 19:08 50.46569 4.46852 593 ft 0 kts 335°
2026-04-30 19:09 50.46575 4.46848 593 ft 3 kts 335°
2026-04-30 19:09 50.46621 4.46814 591 ft 11 kts 335°
2026-04-30 19:10 50.46733 4.46838 586 ft 9 kts 65°
2026-04-30 19:10 50.46768 4.46903 584 ft 4 kts 335°
2026-04-30 19:11 50.46792 4.46885 584 ft 3 kts 334°
2026-04-30 19:11 50.46805 4.46876 584 ft 0 kts 336°